Temperature
19 19 18 18 18 18 18 18 18 19 19 19 19 19 18 18 18 17 17 17 17 17 18 18 18 18 17 17 17 17 17 17 17 17 17 17 17 17 17 17 17 17 17
19 19 19 19 18 18 18 18 19 19 19 18 18 18 18 18 17 17 17 17 17 17 17 17 17 17 17 17 17 17 17 17 17 17 17 17 17 17 17 17 17 17 17
19 19 19 19 19 18 19 19 19 19 18 18 18 18 18 18 17 17 17 17 17 17 17 17 17 17 17 17 17 17 17 17 17 17 17 17 17 17 17 17 17 17 17
19 19 19 19 18 18 19 19 19 18 18 18 18 18 18 18 18 17 17 17 16 16 17 17 17 17 17 17 17 17 17 17 17 17 17 17 17 17 17 17 16 16 16
19 19 19 19 18 18 18 18 18 18 18 18 18 18 18 18 18 17 17 17 17 17 16 17 17 17 17 17 17 17 17 17 17 17 17 17 17 16 16 16 16 16 16
19 19 18 18 18 18 18 18 18 18 18 18 18 18 18 17 17 17 17 17 17 17 16 16 16 17 17 17 17 17 17 17 17 17 17 17 17 17 16 16 16 16 16
19 18 18 18 18 18 18 17 18 17 17 17 17 17 17 17 17 17 17 17 17 17 17 16 16 16 16 17 17 17 17 17 17 17 17 17 16 16 16 16 16 16 16
18 18 18 18 18 17 17 17 17 17 17 17 17 17 17 17 17 17 17 17 17 17 17 17 16 16 16 16 16 16 17 17 17 17 17 17 17 17 16 16 16 16 16
18 18 17 17 17 17 17 17 17 17 17 17 17 17 17 17 17 17 17 17 17 17 17 17 17 17 16 16 16 16 16 16 17 17 17 17 17 17 16 16 16 16 16
17 17 17 17 17 17 17 17 17 17 17 16 17 16 16 17 17 17 17 17 17 17 17 17 17 17 16 16 16 16 16 16 16 16 17 17 17 16 16 16 16 16 16
17 17 17 17 17 17 16 16 16 16 16 16 16 16 16 16 16 16 17 17 17 17 17 17 17 17 16 16 16 16 16 16 16 16 16 16 16 16 16 16 16 16 16
16 16 16 16 16 16 16 16 16 16 16 16 16 16 16 16 16 16 16 16 17 17 17 17 16 16 16 16 16 16 16 16 16 16 16 16 16 16 16 16 16 16 15
16 16 16 16 16 16 16 16 16 16 16 16 16 16 16 16 16 16 16 16 16 16 16 16 16 16 16 16 16 16 16 16 16 16 16 16 16 16 16 16 16 16 15
15 15 16 16 16 16 16 16 16 16 16 16 16 16 16 16 15 15 15 15 15 16 16 16 16 16 16 16 16 15 15 15 16 16 16 16 16 16 16 16 16 16 15
15 15 15 15 16 16 16 16 16 16 16 16 16 15 15 15 15 15 15 15 15 15 15 16 16 16 16 15 15 15 15 15 15 15 15 16 16 16 16 16 16 15 15
15 15 16 16 16 16 16 16 16 16 16 16 15 15 15 15 15 15 15 15 15 15 15 15 15 16 15 15 15 15 15 15 15 15 15 15 15 15 15 15 15 15 15
15 15 16 16 16 16 16 16 16 16 15 15 15 15 15 14 14 14 14 14 14 14 14 15 15 15 15 15 15 15 15 15 15 15 15 15 15 15 15 15 15 15 15
15 15 16 16 16 16 16 15 15 15 15 15 15 15 15 15 14 14 14 14 14 14 14 14 14 14 15 15 15 15 14 14 15 15 15 15 15 15 15 15 15 15 15
15 15 15 16 16 16 15 15 15 15 15 15 15 15 15 14 14 14 14 14 14 14 14 14 14 14 14 14 14 14 14 14 14 14 14 15 15 15 15 15 15 15 15
15 15 15 15 15 15 15 15 15 15 15 15 15 15 15 14 14 14 14 14 14 14 14 14 14 14 14 14 14 14 14 14 14 14 14 14 14 14 15 15 15 15 15
15 15 15 15 15 15 15 15 15 15 15 15 15 15 15 15 14 14 14 14 14 14 14 14 13 13 13 14 14 14 13 13 13 13 13 13 14 14 14 14 14 15 14
14 14 15 15 15 15 15 15 15 15 15 15 15 15 15 15 15 14 14 14 14 14 14 13 13 13 13 13 13 13 13 13 13 13 13 13 13 13 14 14 14 14 14
13 13 14 14 14 14 14 15 15 15 15 15 15 15 15 14 14 14 14 14 14 14 14 14 13 13 13 13 13 13 13 13 12 13 12 13 13 13 13 13 13 14 14
12 12 13 13 13 13 14 14 14 15 15 14 14 14 14 14 14 14 14 14 14 14 14 14 13 13 13 13 13 13 13 12 12 12 12 12 13 13 13 13 13 13 13
12 12 12 12 12 12 13 13 14 14 14 14 14 14 14 14 14 14 14 14 14 14 14 13 13 13 13 13 13 13 12 12 12 12 12 12 12 13 13 13 13 13 13
11 11 11 11 11 12 12 13 13 13 13 13 13 14 14 14 14 14 14 14 14 13 13 13 13 13 13 13 13 12 12 12 12 12 12 12 12 12 12 12 12 12 12
Wind_Speed
4 3 4 7 8 8 6 3 4 2 1 3 4 5 4 6 8 12 11 9 7 6 5 5 5 6 5 5 5 5 6 6 6 5 5 4 4 3 3 2 2 2 2
4 3 3 3 3 4 7 5 3 3 1 3 4 4 3 5 6 10 12 10 8 7 6 5 5 5 5 5 5 5 5 5 5 5 4 4 3 3 2 2 1 1 0
6 4 3 4 3 4 5 2 2 2 3 4 3 1 2 3 3 8 12 12 10 8 7 6 6 5 4 4 5 5 5 5 4 4 4 3 3 3 3 2 2 1 1
8 5 3 3 4 4 1 2 2 1 2 2 2 1 3 2 1 4 8 11 12 11 9 8 7 6 5 5 5 5 5 4 4 3 3 3 3 3 3 2 3 3 2
7 5 4 2 3 2 2 2 2 1 1 1 2 1 1 2 2 2 4 9 12 13 12 10 9 7 6 6 5 5 4 4 3 2 2 2 3 3 3 3 3 4 3
5 5 3 2 1 3 2 1 0 1 1 0 1 1 1 1 2 1 1 3 7 12 13 13 11 9 8 7 6 5 4 4 3 2 2 2 2 3 3 3 4 4 5
3 4 3 3 2 2 2 1 1 0 0 0 1 2 2 3 4 4 2 2 3 8 10 12 12 12 10 9 8 6 5 4 3 2 2 1 2 2 3 3 4 4 5
3 2 3 2 2 2 1 2 2 1 1 1 2 1 2 3 4 4 4 3 3 5 6 10 12 12 12 12 10 9 6 5 3 2 2 1 1 2 2 3 4 4 4
3 2 2 2 3 3 3 5 5 5 4 4 3 3 3 4 3 3 5 5 5 4 4 5 10 14 14 14 14 11 8 6 4 3 2 1 1 1 2 2 3 3 3
3 2 1 1 2 3 5 6 7 6 6 6 4 4 5 3 3 2 2 3 6 6 5 3 3 6 12 15 16 14 11 8 5 3 2 1 1 1 2 2 2 3 3
2 2 2 1 2 3 5 6 6 6 6 7 6 4 5 4 4 3 3 3 2 2 3 3 3 4 8 15 16 16 14 10 7 5 3 2 1 1 1 1 2 3 3
2 1 2 2 3 4 5 6 6 6 6 6 6 5 4 3 4 4 4 4 3 3 3 3 3 4 8 13 15 18 17 13 10 7 5 3 2 2 2 2 2 1 1
2 2 2 3 4 4 5 5 5 5 6 6 6 5 5 4 3 2 3 4 3 3 2 3 4 5 8 11 13 20 18 16 13 10 8 5 4 2 2 2 2 2 1
3 4 4 5 5 5 5 4 2 3 3 4 5 4 3 4 4 3 3 3 3 3 3 4 3 3 7 11 15 22 16 18 16 13 11 8 6 4 3 2 2 1 1
3 5 5 5 5 4 3 2 2 3 2 2 2 3 3 3 3 3 3 4 4 3 4 5 3 3 4 7 14 18 15 19 19 17 14 12 9 7 5 4 3 2 1
2 2 4 4 4 4 3 2 1 1 1 2 2 2 2 2 2 2 3 3 4 4 3 3 3 2 1 2 11 13 13 20 22 20 17 15 12 10 8 7 6 4 3
2 4 4 3 3 4 4 3 3 3 2 2 2 3 2 2 2 2 2 3 3 4 4 3 3 2 2 2 3 6 6 12 16 20 19 17 15 13 11 10 9 7 6
3 3 2 1 1 2 2 3 2 3 3 2 2 2 2 2 2 2 2 3 3 4 4 4 3 3 3 2 2 3 3 8 10 18 21 19 17 15 14 13 12 11 10
3 1 0 1 2 1 1 1 2 3 3 3 2 2 2 2 2 2 3 3 2 3 3 3 3 2 1 1 1 3 3 3 6 12 19 19 18 17 16 16 15 14 13
5 4 3 1 1 1 0 1 1 1 1 1 1 1 2 3 2 1 0 1 1 2 2 2 2 1 1 0 1 2 3 3 3 3 8 12 16 18 18 18 18 17 17
8 7 6 5 5 4 5 6 5 3 2 1 0 2 5 6 5 3 2 2 2 0 0 1 1 0 1 1 2 2 2 2 2 1 2 4 6 8 12 17 19 19 20
8 8 8 7 7 7 9 10 7 6 5 3 1 1 5 6 6 4 4 3 2 2 2 1 0 0 1 2 2 2 2 1 2 1 1 3 3 4 6 9 14 19 21
8 8 8 8 7 8 10 9 8 6 6 5 4 1 1 4 4 4 5 4 3 2 1 1 1 0 0 2 2 2 2 2 2 1 1 2 2 3 3 6 9 14 18
7 7 7 7 6 8 11 9 8 5 5 5 4 2 1 3 3 4 1 1 4 4 3 1 2 2 2 1 2 2 2 1 0 0 1 1 1 2 3 5 7 8 11
6 6 6 6 6 7 11 10 8 4 4 4 3 4 5 6 7 6 4 3 2 2 3 4 4 3 2 2 2 2 1 0 1 1 1 1 1 2 2 2 4 5 6
6 5 5 6 6 7 10 12 10 4 4 3 3 5 8 7 6 7 5 4 4 3 2 2 1 0 1 2 2 1 0 0 1 1 1 1 1 1 3 2 1 1 3
Wind_Direction
215 176 181 170 190 181 172 226 240 158 52 49 48 57 78 87 94 110 120 117 111 110 118 121 125 125 127 129 133 138 141 142 145 147 148 148 148 144 141 132 119 97 61
204 154 203 138 202 178 177 204 202 136 147 83 63 49 46 92 98 122 135 131 125 119 117 122 125 129 133 134 135 140 145 146 149 156 160 166 172 173 171 167 159 154 96
190 155 195 147 204 205 193 207 150 126 127 121 129 159 90 67 145 141 141 148 144 131 124 122 123 126 132 140 143 145 149 150 155 167 177 186 192 200 203 210 221 235 255
188 161 165 154 195 191 171 106 52 30 103 128 151 167 123 105 292 118 151 156 154 145 135 131 127 124 124 132 139 142 146 146 151 161 180 195 203 212 216 224 240 246 256
175 145 140 151 198 145 116 129 161 201 104 114 129 134 150 163 149 221 182 155 146 148 146 143 139 133 129 131 134 139 146 148 152 166 184 201 216 226 233 236 242 249 257
151 130 124 142 64 92 80 18 126 109 76 115 269 183 174 191 214 256 340 126 156 157 157 159 157 153 147 141 137 140 147 153 155 165 184 198 221 235 242 249 253 253 255
102 109 127 129 106 103 130 261 283 174 200 246 4 5 330 283 244 182 211 230 185 147 156 168 173 165 161 156 150 149 151 155 158 148 155 188 224 234 247 258 260 260 256
101 108 119 131 136 134 174 241 261 222 232 222 168 150 289 297 283 225 193 205 220 162 191 189 175 167 172 164 162 155 152 155 156 154 159 179 233 243 253 263 265 265 263
108 99 115 145 172 181 200 226 235 220 217 235 218 175 188 224 256 267 216 198 209 186 197 200 184 181 175 159 156 157 155 156 171 175 177 197 244 255 260 268 266 269 273
119 127 124 173 197 203 209 221 224 219 210 221 231 222 217 202 188 260 287 227 204 200 197 200 203 192 167 151 157 162 165 168 176 185 188 190 222 266 278 260 259 274 281
113 123 124 205 231 227 227 227 232 223 213 216 218 219 232 246 233 206 245 277 265 230 204 193 189 204 159 152 156 166 171 176 184 193 202 217 253 271 288 275 266 276 281
99 93 143 213 230 229 232 232 231 225 217 217 220 220 212 215 218 218 221 233 242 257 234 210 200 190 175 165 172 174 176 180 185 193 203 215 238 260 269 281 276 299 331
166 203 216 226 232 230 230 224 216 223 222 218 216 218 217 223 220 216 220 229 234 252 251 233 213 198 186 173 172 173 180 184 189 196 202 207 214 234 261 258 268 285 322
188 204 212 223 229 224 229 214 213 222 227 219 222 216 212 224 214 204 205 211 235 244 239 244 235 207 199 185 180 178 184 190 194 199 202 204 208 216 226 224 243 276 330
205 209 217 208 213 208 224 198 197 211 220 224 234 234 218 223 218 215 210 195 196 220 238 233 233 229 209 194 181 186 185 195 197 200 202 204 206 209 212 213 208 205 220
241 217 221 210 193 177 185 167 193 154 201 198 194 249 238 225 220 217 213 213 201 204 235 237 222 230 205 179 180 194 203 198 198 198 201 203 205 208 212 212 212 216 223
269 261 247 229 178 165 167 158 185 161 219 226 200 217 228 213 197 213 214 216 213 201 226 252 237 231 219 188 180 228 211 182 195 200 201 203 205 208 212 216 222 226 230
263 258 256 246 146 131 147 156 166 162 196 217 216 209 214 200 206 214 216 222 219 209 212 245 252 229 228 216 203 231 214 196 195 204 204 205 208 211 215 220 225 229 233
313 305 336 84 98 109 132 146 174 190 202 207 204 209 200 176 207 207 212 217 223 227 211 224 247 231 218 223 224 244 245 244 217 201 203 208 212 215 219 224 228 231 234
359 359 2 14 105 143 151 240 237 206 220 199 209 195 122 106 75 44 185 212 210 218 211 212 227 224 208 228 196 237 258 252 247 201 198 207 215 221 225 228 231 233 234
7 3 5 13 27 31 30 23 3 356 347 13 314 90 95 99 93 75 64 35 26 38 162 184 213 182 198 206 220 212 237 256 266 226 202 210 208 216 225 233 236 236 235
11 7 12 23 27 33 32 26 9 349 338 331 315 144 147 147 143 143 138 119 79 56 47 45 78 220 231 209 198 197 203 204 266 264 196 239 207 223 228 227 233 234 234
22 17 19 23 33 35 23 13 5 338 320 323 324 322 124 125 153 171 183 189 184 174 144 52 40 16 227 194 173 196 210 208 225 225 141 269 266 256 266 265 255 235 232
23 22 22 19 25 27 17 5 350 317 300 303 313 338 41 91 66 47 62 201 174 175 188 179 68 70 73 105 152 175 192 194 196 11 140 244 268 267 280 293 284 249 235
17 21 22 19 21 25 16 6 353 309 301 308 344 31 53 73 60 38 9 12 61 110 140 119 95 104 110 98 98 94 102 141 277 248 177 223 281 290 293 290 289 258 246
12 17 22 23 28 26 20 15 7 343 339 347 30 64 63 71 58 36 15 26 41 13 35 115 112 124 211 197 181 183 187 204 301 301 175 183 313 342 325 318 327 243 248
Height
1546 1547 1549 1549 1550 1551 1552 1554 1554 1556 1557 1558 1559 1559 1559 1560 1559 1558 1558 1558 1558 1558 1559 1559 1560 1561 1561 1562 1563 1564 1565 1566 1567 1567 1568 1569 1570 1570 1571 1572 1572 1573 1573
1544 1546 1548 1549 1551 1552 1553 1554 1555 1556 1557 1557 1558 1558 1559 1559 1559 1558 1558 1558 1558 1558 1558 1559 1559 1560 1561 1561 1562 1563 1564 1565 1566 1567 1568 1568 1569 1570 1570 1571 1571 1572 1572
1543 1545 1547 1547 1549 1551 1553 1553 1555 1556 1556 1557 1557 1558 1559 1559 1559 1558 1558 1558 1558 1558 1558 1559 1559 1560 1560 1561 1561 1562 1563 1564 1565 1566 1566 1567 1568 1568 1569 1569 1570 1570 1571
1541 1543 1545 1546 1548 1550 1551 1552 1553 1555 1556 1556 1557 1557 1558 1558 1559 1559 1558 1557 1557 1557 1558 1558 1558 1559 1559 1560 1561 1561 1562 1563 1564 1564 1565 1566 1566 1567 1567 1568 1568 1569 1569
1539 1540 1542 1544 1546 1548 1549 1551 1552 1554 1555 1555 1556 1557 1557 1558 1558 1558 1559 1558 1557 1557 1557 1557 1558 1558 1559 1559 1560 1560 1561 1561 1562 1563 1563 1564 1564 1565 1565 1566 1566 1567 1567
1536 1538 1539 1541 1544 1545 1547 1549 1550 1552 1553 1554 1555 1555 1556 1557 1557 1557 1558 1558 1557 1557 1556 1556 1557 1557 1558 1558 1559 1559 1560 1560 1561 1561 1562 1562 1563 1563 1563 1564 1564 1564 1565
1533 1535 1536 1538 1540 1542 1544 1546 1548 1549 1551 1552 1553 1553 1554 1555 1555 1556 1556 1557 1557 1557 1556 1556 1556 1556 1557 1557 1557 1558 1559 1559 1559 1560 1560 1560 1561 1561 1561 1562 1562 1562 1563
1529 1531 1532 1534 1537 1539 1541 1543 1545 1546 1548 1549 1550 1551 1551 1553 1553 1553 1554 1555 1555 1555 1555 1555 1555 1555 1555 1556 1556 1557 1557 1558 1558 1558 1559 1559 1559 1559 1559 1560 1560 1560 1561
1524 1526 1528 1531 1533 1535 1537 1539 1541 1542 1544 1545 1547 1548 1548 1548 1549 1550 1551 1552 1553 1553 1554 1554 1555 1554 1554 1554 1555 1555 1556 1556 1557 1557 1557 1557 1557 1557 1557 1558 1558 1558 1558
1519 1522 1525 1527 1529 1531 1533 1535 1537 1538 1540 1541 1543 1544 1546 1546 1548 1547 1549 1549 1550 1551 1551 1552 1553 1554 1553 1552 1553 1554 1554 1554 1555 1555 1556 1556 1556 1556 1556 1556 1556 1556 1556
1516 1518 1520 1523 1525 1527 1530 1532 1533 1534 1535 1537 1539 1540 1542 1543 1544 1545 1546 1547 1547 1548 1549 1549 1550 1551 1552 1551 1551 1552 1552 1552 1553 1553 1554 1554 1554 1554 1554 1554 1554 1554 1554
1512 1514 1516 1519 1522 1524 1526 1528 1529 1531 1532 1533 1534 1536 1537 1539 1539 1541 1542 1543 1544 1545 1545 1546 1547 1548 1549 1548 1549 1549 1550 1550 1551 1551 1552 1552 1552 1553 1553 1553 1553 1553 1552
1508 1510 1513 1516 1519 1521 1522 1524 1526 1527 1528 1529 1530 1532 1533 1535 1536 1537 1539 1539 1540 1541 1542 1543 1543 1545 1545 1546 1546 1546 1547 1548 1548 1549 1549 1550 1550 1551 1551 1551 1551 1551 1550
1506 1508 1511 1513 1516 1518 1520 1521 1523 1524 1525 1526 1527 1528 1529 1531 1532 1533 1534 1536 1536 1537 1537 1539 1540 1541 1541 1542 1542 1543 1544 1545 1546 1546 1547 1548 1548 1548 1549 1549 1549 1549 1548
1505 1507 1509 1512 1514 1516 1518 1519 1520 1522 1522 1523 1524 1525 1526 1527 1528 1529 1530 1532 1533 1533 1533 1534 1536 1537 1537 1538 1539 1540 1541 1542 1543 1544 1544 1545 1546 1546 1547 1547 1547 1547 1546
1505 1507 1509 1511 1513 1515 1516 1517 1518 1519 1520 1521 1522 1523 1523 1524 1524 1525 1526 1528 1529 1530 1530 1530 1532 1533 1534 1534 1535 1537 1538 1539 1540 1541 1542 1543 1543 1544 1544 1545 1545 1545 1544
1506 1508 1509 1511 1513 1514 1515 1516 1517 1517 1518 1519 1520 1520 1521 1521 1521 1522 1523 1524 1525 1526 1526 1527 1528 1529 1529 1530 1531 1532 1534 1535 1536 1537 1538 1540 1540 1541 1542 1542 1543 1543 1542
1507 1508 1509 1511 1512 1513 1514 1515 1516 1516 1517 1518 1518 1519 1519 1519 1519 1520 1520 1521 1521 1522 1523 1523 1524 1525 1525 1526 1527 1528 1530 1530 1532 1533 1535 1536 1537 1538 1539 1540 1540 1540 1540
1507 1508 1509 1510 1511 1512 1514 1515 1515 1516 1516 1517 1517 1518 1518 1518 1518 1518 1518 1518 1518 1519 1519 1520 1520 1521 1521 1522 1523 1524 1525 1526 1528 1529 1530 1532 1533 1534 1535 1536 1537 1537 1537
1508 1508 1509 1510 1511 1512 1513 1513 1514 1515 1516 1516 1517 1517 1517 1517 1517 1517 1517 1517 1517 1517 1517 1517 1517 1518 1518 1519 1519 1520 1521 1522 1523 1525 1525 1527 1529 1530 1531 1532 1533 1534 1534
1508 1508 1508 1509 1510 1511 1511 1512 1513 1514 1515 1516 1516 1516 1516 1516 1516 1516 1516 1516 1516 1516 1515 1515 1516 1516 1516 1516 1516 1516 1517 1518 1519 1520 1521 1522 1524 1525 1526 1528 1529 1529 1530
1507 1507 1507 1508 1508 1509 1510 1511 1512 1513 1514 1515 1515 1515 1515 1515 1515 1515 1515 1515 1515 1515 1515 1515 1514 1514 1514 1514 1514 1514 1514 1515 1515 1517 1517 1518 1519 1520 1522 1523 1524 1525 1526
1507 1506 1506 1506 1506 1507 1507 1508 1509 1511 1512 1513 1513 1514 1514 1515 1515 1515 1515 1515 1515 1515 1515 1515 1514 1514 1514 1513 1513 1513 1513 1513 1513 1514 1514 1514 1516 1516 1517 1518 1519 1520 1521
1507 1507 1506 1506 1506 1506 1506 1506 1507 1508 1509 1511 1512 1512 1513 1513 1514 1514 1515 1515 1515 1515 1515 1515 1514 1514 1514 1513 1512 1512 1512 1512 1512 1512 1512 1512 1512 1513 1514 1514 1515 1515 1516
1508 1508 1507 1506 1505 1505 1504 1504 1505 1506 1507 1508 1509 1510 1511 1511 1513 1513 1514 1514 1514 1515 1515 1515 1514 1514 1513 1513 1513 1512 1512 1511 1511 1511 1511 1511 1511 1511 1511 1511 1511 1511 1512
1510 1509 1508 1507 1506 1505 1504 1504 1504 1505 1505 1507 1508 1508 1509 1510 1511 1512 1512 1513 1513 1514 1514 1514 1514 1513 1513 1513 1512 1512 1512 1511 1511 1511 1511 1511 1510 1509 1509 1509 1509 1509 1509